STARLINK-34728, 65455

Orbit data source: Space-Track

STARLINK-34728, 65455 is a payload satellite owned by SpaceX/Seattle (US) in SSO that was launched on Wed, 03 Sep 2025 UTC via an FALCON 9 launch vehicle from the Air Force Western Test Range (AFWTR). Payload-class satellites include a variety of spacecraft equipped with specific instruments for various scientific and technological missions. These include communications satellites like Starlink; space stations such as the ISS; scientific satellites like the Hubble; Earth observation satellites from companies like Planet Labs, Umbra, and HawkEye 360; GPS; miniature CubeSats for education and research; and military/defense satellites.

Loading next visibility...
Identifier
65455, 2025-194X
Orbit
SSO
Country
Flag of USUS
Related business
Manufacturer
SpaceX/Seattle
Mission
Operational Commercial Communications
Bus & Motor
STARLINK V2MO, Unknown motor
Mass
575 kg wet, ~530 kg dry
Launch date (UTC)
2025-09-03 (10 months ago)
Launch vehicle
FALCON 9
Launch site
Air Force Western Test Range (AFWTR)
Object type
Payload
Rocket body
Debris
Shape & HBR
Box + 2 Pan, 17.7 m
Radar Cross Section
36.964 m², Large (>1 m²)

Expand to show TLE details & history
Last TLE update: 20 hours ago

TLE from 20 hours ago
0 STARLINK-34728
1 65455U 25194X   26171.03155808  .00014685  00000-0  10191-2 0  9991
2 65455  97.3406  24.1285 0002966  97.3649 262.7915 15.05670585 45046
Epoch: 2026-06-20T00:45Z
TLE epoch observation values (Epoch: 2026-06-20T00:45:26.618Z)
Latitude
-0.00007°
Longitude
104.51558°
Altitude
552.779 km
Speed
7.585 km/s
True Right ascension
01h 36m 30s
True Declination
0° 00' 00"
Sunlit
Object was in daylight at epoch
Visualization orbit readout
Latitude
Unknown
Longitude
Unknown
Altitude
Unknown
Speed
Unknown
Apparent Right ascension
Unknown
Apparent Declination
Unknown
Sunlit
N/A
Visualization observer readout
Local Sidereal Time
07:20:08
Azimuth
Unknown
Elevation
Unknown
Doppler factor
Unknown
Orbital elements
Apogee altitude
548.484 km
Perigee altitude
544.376 km
Semi-major axis
6,924.567 km
Eccentricity
0.0003
Inclination
97.3406°
RAAN
24.1285°
Arg. of periapsis
97.3649°
True anomaly
262.75778°
Mean anomaly
262.7915°
Eccentric anomaly
262.77464°
Mean motion
3.76664 °/min
Orbital period
95.58 mins
BSTAR
0.0010191
Loading maneuver chart data...
Computing Atmospheric mass density...
Loading historical data...
Loading historical data...
Loading historical data...
Loading historical data...
Loading historical data...
Loading historical data...
Loading historical data...

Documentation

Showing up to 5 results
|